Temperature
18 18 18 18 18 18 18 18 18 18 18 18 18 18 18 18 18 18 18 18 18 18 18 18 18 18 18 18 18 18 18 18 18 18 18 18 18 18 18 18 18 18 18
18 18 18 18 18 18 18 18 18 18 18 18 18 18 18 18 18 18 18 18 18 18 18 18 18 18 18 18 18 18 18 18 18 18 18 18 18 18 18 18 18 18 18
18 18 18 18 18 18 18 18 18 18 18 18 18 18 18 18 18 18 18 18 18 18 18 18 18 18 18 18 18 18 18 18 18 18 18 18 18 18 18 18 18 18 18
18 18 18 18 18 18 18 18 18 18 18 18 18 17 17 18 18 17 17 18 18 18 18 18 18 18 18 18 18 18 18 18 18 18 17 17 17 17 18 18 18 18 18
18 18 18 18 18 18 18 18 18 18 18 17 17 17 17 17 17 17 17 17 17 17 18 18 18 18 17 17 17 17 17 17 17 17 17 17 17 17 17 17 17 17 17
18 18 18 18 18 18 18 17 17 17 17 17 17 17 17 17 17 17 17 17 17 17 17 17 17 17 17 17 17 17 17 17 17 17 17 17 17 17 17 17 17 17 17
18 18 18 18 18 18 17 17 17 17 17 17 17 17 17 17 17 17 17 17 17 17 17 17 17 17 17 17 17 17 17 17 17 17 17 17 17 17 17 17 17 17 17
18 18 18 18 17 17 17 17 17 17 17 17 17 17 17 17 17 17 17 17 17 17 17 17 17 17 17 17 17 17 17 17 17 17 17 17 17 17 17 17 17 17 17
18 18 18 18 17 17 17 17 17 17 17 17 17 17 17 17 17 17 16 16 16 16 17 17 17 17 17 17 16 16 16 16 17 17 17 17 17 17 17 17 16 16 17
18 18 18 18 17 17 17 17 17 17 17 17 17 17 17 17 17 16 16 16 16 16 16 16 16 16 16 16 16 16 16 16 16 16 16 16 16 16 16 16 16 16 16
18 18 18 18 17 17 17 17 17 17 17 17 16 16 16 16 16 16 16 16 16 16 16 16 16 16 16 16 16 16 16 16 16 16 16 16 16 16 16 16 16 16 16
18 18 18 17 17 17 17 17 17 16 16 16 16 16 16 16 16 16 16 16 16 16 16 16 16 16 16 16 16 16 16 16 16 16 16 16 16 16 16 16 16 16 16
18 18 17 17 17 17 17 17 17 16 16 16 16 16 16 16 16 16 16 16 16 16 16 16 16 16 16 16 16 16 16 15 16 16 16 16 16 16 16 16 15 15 15
18 18 17 17 17 17 17 17 16 16 16 16 16 16 16 16 16 16 15 15 15 15 16 15 15 15 15 15 15 15 15 15 15 15 15 15 15 15 15 15 15 15 15
18 18 17 17 17 17 17 16 16 16 16 16 16 16 16 16 16 16 15 15 15 15 15 15 15 15 15 15 15 15 15 15 15 15 15 15 15 15 15 15 15 15 15
18 18 17 17 17 17 17 17 16 16 16 16 16 16 16 16 16 15 15 15 15 15 15 15 15 15 15 15 15 15 15 15 15 15 15 15 15 15 15 15 15 15 15
18 18 17 17 17 17 17 16 16 16 16 16 16 16 16 15 15 15 15 15 15 15 15 15 15 15 15 15 15 15 15 14 14 14 14 14 14 14 14 14 14 14 14
18 18 17 17 17 17 17 16 16 16 16 16 16 15 15 15 15 15 15 15 15 15 15 15 15 15 15 15 14 14 14 14 14 14 14 14 14 14 14 14 14 14 14
18 18 17 17 17 17 16 16 16 16 16 16 15 15 15 15 15 15 15 15 15 15 15 15 15 15 14 14 14 14 14 14 14 14 14 14 14 14 14 14 14 14 14
18 18 17 17 17 17 16 16 16 16 15 15 15 15 15 15 15 15 15 15 15 15 15 14 14 14 14 14 14 14 14 14 14 14 14 14 14 14 14 13 13 14 14
18 17 17 17 17 16 16 16 16 16 15 15 15 15 15 15 15 15 15 14 14 14 14 14 14 14 14 14 14 13 13 13 13 13 13 13 13 13 13 13 13 13 13
18 17 17 17 17 16 16 16 16 15 15 15 15 15 15 15 15 14 14 14 14 14 14 14 14 14 14 14 14 13 13 13 13 13 13 13 13 13 13 13 13 13 13
18 17 17 17 16 16 16 16 15 15 15 15 15 15 14 14 14 14 14 14 14 14 14 14 14 14 14 14 14 13 13 13 13 13 13 13 13 13 13 13 13 13 13
18 17 17 16 16 16 16 15 15 15 15 15 14 14 14 14 14 14 14 14 14 14 14 14 14 13 14 14 14 14 13 13 13 12 12 13 13 13 13 13 13 13 13
17 17 17 16 16 16 15 15 15 15 15 14 14 14 14 14 14 14 14 14 14 14 14 13 13 13 13 13 13 13 13 13 13 13 12 12 12 12 12 13 13 13 13
17 17 16 16 16 15 15 15 15 15 14 14 14 14 14 14 14 14 14 14 13 13 13 13 13 13 13 13 13 13 13 13 13 13 12 12 12 12 12 12 12 12 12
Wind_Speed
1 2 5 7 8 9 10 10 10 11 10 10 10 9 9 9 9 9 9 10 10 10 10 9 9 10 10 10 11 12 12 12 12 11 10 10 10 10 10 9 9 9 11
3 2 6 8 9 10 10 10 11 11 11 11 11 10 10 10 11 11 12 12 11 10 10 9 10 10 10 10 10 11 11 11 11 10 10 9 9 9 9 9 9 8 10
4 4 6 8 9 10 10 10 11 12 12 12 11 11 11 10 11 12 12 12 10 10 10 10 10 10 10 10 10 11 11 11 10 10 9 7 7 9 9 9 9 10 10
6 5 7 9 10 10 10 11 11 12 12 12 12 12 11 10 10 11 11 11 10 9 9 9 9 9 10 10 10 11 11 11 10 9 7 6 7 9 10 10 10 10 10
6 6 8 10 10 10 11 11 12 12 12 12 13 13 13 13 12 11 11 10 10 9 8 8 9 9 10 10 11 11 11 11 11 9 8 7 7 9 9 10 9 9 9
6 7 8 10 10 11 11 12 12 12 12 12 13 13 13 12 11 11 11 10 9 9 9 8 9 9 10 10 11 11 11 11 10 9 8 7 7 8 9 9 9 8 8
6 6 8 10 10 10 11 11 11 12 12 12 13 13 12 12 11 11 10 10 9 9 9 9 9 9 9 10 11 11 11 11 9 8 7 7 7 8 8 8 8 8 8
7 6 7 9 9 9 9 10 10 11 12 12 12 13 13 12 12 11 10 9 9 9 9 9 9 9 10 10 11 11 11 10 9 7 7 7 8 8 7 7 8 8 8
7 6 5 6 7 7 8 8 9 10 11 11 12 12 13 12 11 10 10 9 8 9 9 9 9 9 10 10 11 11 11 10 8 6 7 6 8 8 8 9 10 9 8
5 5 4 4 5 5 5 6 7 8 9 10 11 11 11 11 10 10 9 9 9 9 8 8 8 9 10 10 11 11 11 10 8 6 5 6 8 9 10 11 10 9 9
4 3 4 3 4 4 4 5 6 7 7 8 9 10 10 8 8 8 8 9 10 9 8 8 9 11 11 11 10 10 9 8 7 6 6 8 9 9 11 11 11 11 11
3 3 3 4 3 3 3 4 4 5 5 6 6 6 7 7 6 7 8 9 9 10 10 10 11 11 10 8 9 9 7 7 6 5 7 10 10 10 11 11 11 11 12
4 4 4 4 4 3 3 3 3 4 4 5 5 5 6 6 5 6 5 6 7 8 8 9 9 8 8 7 7 7 7 7 6 6 8 11 11 11 11 12 12 12 12
4 4 4 5 4 3 4 3 3 3 3 3 5 6 5 4 3 3 3 4 5 5 6 6 6 7 8 8 8 7 7 6 6 6 8 11 11 12 12 12 12 12 12
3 3 4 5 5 4 3 2 3 3 3 5 6 6 6 3 3 3 3 4 5 6 6 5 5 6 6 7 7 8 7 7 7 7 7 10 10 11 12 13 12 12 12
3 3 4 4 4 4 3 2 2 3 4 5 5 6 7 5 3 3 4 4 4 5 6 6 5 5 5 5 6 6 7 7 7 8 7 8 10 11 12 11 11 11 11
4 3 4 5 5 5 4 3 3 4 5 4 4 6 6 6 4 4 3 3 3 6 7 6 6 6 6 6 6 6 5 6 7 7 7 7 8 10 10 10 10 10 9
4 4 4 5 5 4 3 3 3 4 5 4 4 5 6 6 6 4 3 3 4 6 5 4 4 5 5 5 5 4 4 4 6 6 6 6 7 7 8 9 9 9 8
5 5 4 4 4 4 3 4 4 5 4 4 5 5 6 6 6 5 3 3 5 5 4 4 4 4 4 4 4 4 4 4 4 5 5 5 6 6 6 7 8 7 7
5 5 5 4 4 4 4 4 3 4 3 3 4 4 5 5 6 6 4 4 4 4 4 4 4 4 3 3 5 5 4 4 4 4 3 4 5 5 4 5 5 4 5
5 5 5 4 3 4 3 3 2 1 1 1 2 4 5 5 5 5 3 3 3 4 3 4 4 4 3 3 4 4 4 4 4 3 3 3 4 4 4 4 3 3 2
6 5 4 4 4 3 2 2 2 2 1 1 1 2 3 4 4 4 3 3 3 3 4 3 3 3 2 2 3 3 2 3 4 3 3 3 3 4 4 3 3 3 2
6 6 5 4 4 3 3 3 3 3 2 2 2 0 1 3 3 3 3 2 3 3 3 3 3 4 2 1 2 3 3 2 1 3 3 3 3 2 2 2 3 2 2
6 6 6 5 4 3 4 4 4 3 1 1 1 1 0 2 2 3 3 2 2 2 3 3 3 3 3 2 1 1 2 4 3 0 3 3 3 2 2 1 2 2 2
6 6 5 5 4 4 3 4 4 3 2 1 0 1 0 0 1 2 3 2 2 2 3 3 3 3 2 2 2 1 2 2 2 3 1 2 2 2 2 1 1 2 2
4 5 5 5 4 4 4 4 4 4 3 2 1 1 1 1 1 1 2 2 2 2 3 3 3 3 2 2 2 2 2 2 2 2 2 1 0 2 2 1 1 1 1
Wind_Direction
303 352 59 63 63 64 63 61 58 58 59 59 60 66 74 74 82 98 106 114 112 112 110 110 107 105 101 104 111 112 110 106 106 102 101 102 102 102 103 99 99 98 100
165 93 72 70 70 68 66 64 62 61 61 60 59 63 72 77 84 94 98 100 103 104 102 104 104 102 99 99 103 106 106 104 103 100 99 101 104 107 107 103 102 100 102
129 102 83 76 75 73 70 67 65 64 62 60 60 61 66 74 82 90 94 97 98 101 101 101 100 100 98 101 103 104 105 105 102 99 95 91 102 107 108 106 106 105 105
118 102 89 85 81 78 76 72 70 67 65 63 61 59 60 73 86 91 94 96 96 99 101 101 102 100 102 102 104 105 104 101 100 97 87 91 99 104 106 107 108 105 104
106 100 94 90 86 81 76 74 72 70 70 67 64 61 62 77 86 89 90 90 90 94 98 103 104 103 102 101 102 102 101 98 95 90 85 86 94 106 106 106 108 104 102
112 106 101 97 91 84 77 74 73 71 70 69 66 64 67 74 80 84 86 86 88 94 101 103 105 104 101 99 98 98 97 94 91 87 88 91 99 109 109 107 108 108 107
125 116 109 103 95 88 81 76 73 72 70 69 66 65 67 73 79 81 84 85 86 92 99 101 102 100 99 101 101 97 94 93 93 92 87 90 103 109 109 112 114 110 108
128 120 113 107 103 93 87 82 75 73 70 69 68 67 69 73 78 78 80 82 88 94 98 99 100 100 100 99 97 95 94 95 97 97 88 89 102 103 104 114 117 111 107
124 119 111 110 108 100 91 84 78 75 73 72 70 69 71 71 74 75 74 81 87 93 95 99 100 100 98 97 95 93 89 89 89 91 90 90 95 96 99 110 114 109 107
122 129 121 112 109 106 95 88 83 76 72 71 71 69 69 70 70 70 70 77 81 85 90 100 106 103 99 96 92 90 88 86 82 83 87 94 95 94 97 104 105 105 103
123 136 140 131 124 121 107 91 81 73 68 69 70 70 65 59 62 64 66 71 74 76 78 93 104 100 96 95 92 89 87 85 81 76 87 96 98 97 96 99 101 101 101
151 160 161 154 147 132 117 90 78 72 63 66 64 65 64 61 59 60 59 62 67 68 71 86 98 94 86 86 86 86 85 87 80 80 90 96 98 97 97 98 100 99 99
169 161 164 162 154 137 113 101 79 69 62 61 66 73 73 68 57 52 47 43 49 57 60 71 79 79 80 85 85 85 87 85 77 78 91 95 95 97 99 100 99 98 95
151 158 160 156 145 137 125 113 96 85 73 61 62 76 81 71 56 50 45 39 46 57 63 66 72 77 80 82 87 88 88 86 79 76 86 92 95 97 99 99 96 97 96
151 153 158 151 143 140 125 113 106 98 84 74 71 71 79 74 67 63 54 49 51 65 72 72 73 76 76 76 86 88 83 83 80 77 84 90 98 102 98 95 93 93 94
149 153 146 140 142 132 131 127 120 108 94 86 81 80 83 82 74 70 66 54 52 68 77 81 80 78 74 77 78 81 82 84 83 82 80 85 92 100 99 96 94 96 96
148 140 142 141 128 127 131 133 116 106 101 95 85 85 87 85 81 75 75 69 57 75 80 78 73 76 79 77 72 73 78 80 83 84 82 80 85 92 95 96 96 95 97
144 131 122 127 121 120 121 112 103 98 93 86 81 80 83 86 89 80 79 73 71 78 78 84 75 77 72 71 71 69 71 79 82 85 86 83 84 84 85 90 91 90 96
145 133 118 111 113 115 104 92 90 92 85 80 75 72 76 83 89 90 85 78 82 78 76 91 77 87 86 78 81 72 62 67 73 84 80 84 86 85 83 83 84 87 92
138 129 123 117 108 101 97 89 77 71 75 73 74 76 82 78 83 86 86 79 85 88 80 86 88 78 89 91 89 70 54 55 61 67 74 79 80 81 83 78 75 83 90
132 130 131 127 125 109 101 110 112 105 91 84 77 86 88 86 85 86 89 89 94 105 109 108 103 91 76 83 86 62 35 39 52 47 51 62 64 67 77 86 85 80 86
150 149 147 143 139 128 122 129 138 142 127 125 63 79 96 96 93 101 103 117 114 113 101 99 106 102 91 88 109 101 54 13 14 26 34 51 46 54 61 82 83 85 87
164 164 163 158 145 134 119 99 82 63 50 38 26 16 73 100 101 108 120 124 123 124 133 132 124 120 126 61 93 125 132 181 325 356 16 32 36 49 39 53 65 69 100
183 169 162 157 150 143 129 122 123 127 147 215 217 233 255 109 121 119 117 125 131 133 140 154 140 134 133 139 70 75 134 149 141 65 352 2 17 35 28 51 54 56 83
175 165 166 157 154 156 149 144 140 143 175 172 139 138 165 325 106 127 126 128 138 146 151 148 129 127 131 142 148 123 91 82 96 129 146 338 2 355 357 20 56 42 65
162 157 160 156 163 160 155 156 156 160 161 150 163 189 220 254 273 243 138 127 139 149 154 153 148 139 136 128 120 117 131 129 144 139 151 173 311 315 343 5 40 42 31
Height
1525 1524 1522 1521 1519 1518 1516 1515 1514 1512 1510 1508 1506 1503 1501 1499 1497 1498 1499 1502 1504 1506 1507 1508 1509 1509 1509 1508 1508 1510 1511 1512 1513 1514 1514 1515 1515 1516 1517 1517 1518 1518 1519
1525 1524 1523 1521 1520 1519 1517 1516 1515 1513 1511 1509 1507 1504 1502 1499 1498 1499 1501 1503 1505 1506 1507 1508 1509 1509 1509 1509 1510 1511 1512 1513 1514 1514 1515 1515 1516 1516 1517 1518 1518 1519 1519
1526 1525 1524 1522 1521 1520 1518 1517 1516 1514 1512 1510 1508 1506 1503 1501 1501 1502 1503 1505 1506 1507 1508 1509 1509 1510 1510 1511 1511 1512 1513 1514 1515 1515 1515 1515 1516 1517 1517 1518 1519 1519 1520
1526 1525 1524 1523 1522 1521 1520 1518 1517 1515 1514 1512 1510 1507 1503 1499 1501 1504 1506 1506 1507 1508 1509 1509 1510 1511 1511 1512 1512 1513 1514 1514 1515 1515 1516 1516 1516 1517 1518 1518 1519 1520 1520
1527 1526 1525 1524 1523 1522 1521 1520 1518 1517 1515 1513 1511 1509 1505 1502 1504 1506 1507 1508 1508 1509 1509 1510 1511 1511 1512 1512 1513 1514 1514 1515 1516 1516 1516 1516 1517 1518 1518 1519 1519 1520 1521
1528 1527 1526 1525 1524 1523 1522 1521 1520 1518 1517 1515 1513 1511 1509 1507 1507 1508 1508 1509 1509 1509 1510 1510 1511 1512 1512 1513 1514 1514 1515 1515 1516 1517 1517 1517 1517 1518 1518 1519 1519 1520 1521
1528 1528 1527 1526 1525 1524 1523 1522 1521 1520 1518 1517 1515 1514 1512 1511 1510 1510 1510 1510 1509 1510 1510 1511 1512 1512 1513 1514 1514 1515 1515 1516 1517 1517 1518 1518 1518 1518 1518 1518 1519 1520 1522
1529 1529 1528 1527 1526 1525 1524 1523 1522 1521 1520 1518 1517 1516 1514 1513 1512 1512 1511 1510 1510 1510 1510 1511 1512 1512 1513 1514 1515 1515 1516 1517 1518 1518 1518 1518 1518 1517 1516 1516 1517 1520 1522
1530 1530 1529 1528 1527 1527 1526 1525 1524 1523 1521 1520 1519 1517 1516 1515 1514 1513 1512 1511 1511 1510 1511 1511 1512 1513 1514 1515 1515 1516 1517 1518 1518 1519 1519 1519 1518 1516 1513 1514 1516 1519 1521
1531 1531 1530 1529 1529 1528 1527 1526 1525 1524 1523 1522 1521 1519 1518 1517 1516 1515 1514 1513 1512 1511 1511 1510 1511 1513 1514 1515 1516 1517 1518 1519 1520 1520 1520 1520 1519 1517 1515 1515 1518 1520 1522
1531 1531 1531 1530 1530 1529 1528 1527 1526 1525 1524 1523 1522 1521 1520 1519 1518 1517 1516 1515 1514 1512 1509 1507 1509 1512 1514 1516 1518 1519 1519 1520 1521 1521 1521 1521 1520 1519 1519 1519 1521 1522 1523
1531 1531 1531 1531 1530 1530 1529 1528 1527 1527 1526 1525 1524 1523 1522 1521 1520 1519 1518 1517 1516 1513 1510 1507 1509 1513 1516 1517 1519 1520 1521 1521 1522 1522 1522 1522 1522 1522 1522 1522 1523 1524 1524
1532 1531 1531 1531 1531 1530 1530 1529 1528 1528 1527 1526 1525 1524 1523 1522 1522 1521 1520 1519 1518 1516 1514 1512 1514 1516 1517 1519 1520 1521 1522 1523 1524 1524 1524 1524 1524 1524 1524 1524 1525 1525 1526
1531 1531 1531 1531 1531 1531 1530 1530 1529 1528 1528 1527 1526 1525 1525 1524 1523 1522 1522 1521 1520 1519 1518 1517 1518 1519 1520 1522 1523 1523 1524 1525 1525 1526 1526 1526 1526 1526 1526 1526 1527 1527 1527
1531 1531 1531 1531 1531 1531 1531 1530 1530 1529 1528 1528 1527 1526 1526 1525 1525 1524 1523 1523 1522 1522 1522 1521 1521 1522 1523 1523 1525 1525 1526 1526 1527 1527 1528 1528 1528 1528 1528 1528 1528 1528 1529
1531 1531 1531 1531 1531 1530 1530 1530 1530 1530 1529 1528 1528 1528 1527 1526 1526 1525 1525 1525 1524 1524 1524 1524 1524 1524 1525 1525 1526 1527 1528 1528 1529 1529 1529 1529 1529 1530 1530 1530 1530 1530 1530
1530 1531 1531 1531 1531 1530 1530 1530 1530 1530 1530 1529 1529 1528 1528 1527 1527 1527 1526 1526 1526 1526 1526 1526 1526 1526 1527 1527 1528 1529 1529 1530 1530 1530 1530 1531 1531 1531 1531 1531 1531 1531 1532
1530 1530 1530 1531 1531 1530 1530 1530 1530 1530 1530 1529 1529 1529 1529 1528 1528 1528 1528 1527 1528 1528 1528 1528 1528 1528 1528 1528 1529 1530 1531 1531 1532 1532 1532 1532 1532 1532 1532 1533 1533 1533 1533
1529 1530 1530 1530 1530 1530 1530 1530 1530 1530 1529 1529 1529 1529 1529 1529 1529 1529 1528 1528 1529 1529 1529 1529 1529 1529 1529 1530 1530 1531 1532 1532 1533 1533 1533 1533 1533 1533 1533 1534 1534 1534 1534
1528 1529 1529 1530 1530 1530 1530 1530 1530 1530 1529 1529 1529 1529 1529 1529 1529 1529 1529 1529 1529 1529 1529 1530 1530 1530 1530 1531 1531 1532 1533 1534 1534 1534 1534 1534 1535 1535 1535 1535 1535 1535 1535
1527 1528 1528 1529 1529 1529 1529 1529 1529 1529 1529 1529 1529 1529 1529 1529 1529 1529 1529 1529 1529 1530 1530 1530 1531 1531 1532 1532 1532 1533 1535 1535 1536 1536 1536 1536 1536 1536 1536 1536 1536 1536 1535
1526 1527 1528 1528 1529 1529 1529 1529 1529 1529 1529 1529 1529 1529 1529 1529 1529 1529 1528 1529 1529 1530 1530 1530 1531 1531 1532 1533 1533 1533 1535 1537 1536 1537 1537 1537 1536 1536 1536 1536 1536 1536 1536
1525 1526 1526 1527 1528 1528 1528 1529 1528 1529 1528 1528 1528 1528 1528 1528 1528 1528 1528 1529 1529 1529 1530 1530 1531 1531 1532 1533 1533 1534 1534 1535 1537 1538 1537 1537 1537 1537 1537 1537 1536 1536 1536
1523 1524 1525 1526 1526 1527 1527 1527 1527 1527 1527 1527 1527 1527 1528 1527 1527 1528 1528 1528 1529 1529 1529 1530 1531 1531 1532 1532 1533 1533 1534 1534 1535 1537 1538 1537 1537 1537 1537 1537 1536 1536 1536
1522 1523 1524 1524 1525 1526 1526 1526 1526 1526 1526 1526 1526 1527 1527 1527 1527 1527 1527 1527 1528 1528 1529 1529 1530 1531 1532 1532 1532 1533 1533 1534 1534 1535 1536 1537 1537 1537 1537 1537 1536 1536 1536
1520 1521 1522 1523 1524 1524 1524 1525 1525 1524 1524 1525 1525 1525 1525 1525 1525 1526 1526 1526 1526 1527 1528 1528 1529 1530 1531 1531 1531 1532 1532 1533 1533 1534 1534 1535 1536 1536 1536 1536 1536 1536 1536